�N����,����,�~����,�C��,���x,�C��,����,���ϕ���,�ő�u�ԕ���,�ő厞����,���˗�,�I�_���x,�n�����x,�ő啗���N��,DTYPE
"23/08/21","00:10",0.0,27.7,84.6,1005.0,336.6,1.5,3.1,319.6,0.00,24.9,27.6,"00:01:44",1
"23/08/21","00:20",0.0,27.7,84.8,1005.2,334.2,2.1,4.0,350.8,0.00,24.9,27.7,"00:11:28",1
"23/08/21","00:30",0.0,27.6,85.0,1005.0,334.7,1.5,2.9,336.4,0.00,24.9,27.7,"00:29:52",1
"23/08/21","00:40",0.0,27.5,85.4,1005.0,339.8,1.7,3.7,350.0,0.00,24.9,27.5,"00:33:44",1
"23/08/21","00:50",0.0,27.4,85.7,1004.5,342.7,1.5,3.1,349.4,0.00,24.8,27.6,"00:49:04",1
"23/08/21","01:00",0.0,27.3,86.0,1004.5,343.1,1.7,3.6,338.2,0.00,24.8,27.6,"00:59:36",1
"23/08/21","01:10",0.0,27.2,86.4,1005.0,339.3,1.6,2.9,335.6,0.00,24.8,27.4,"01:06:24",1
"23/08/21","01:20",0.0,27.2,86.6,1004.8,335.6,1.5,2.9,348.5,0.00,24.8,27.3,"01:10:08",1
"23/08/21","01:30",0.0,27.1,86.8,1004.5,329.5,1.5,2.6,305.0,0.00,24.7,27.6,"01:29:44",1
"23/08/21","01:40",0.0,27.1,87.0,1004.8,319.9,1.5,2.7,346.1,0.00,24.8,27.5,"01:32:40",1
"23/08/21","01:50",0.0,27.0,87.2,1004.8,301.5,1.1,2.4,325.4,0.00,24.7,27.5,"01:40:40",1
"23/08/21","02:00",0.0,27.0,87.2,1004.5,321.0,1.3,2.5,320.2,0.00,24.7,27.3,"01:59:52",1
"23/08/21","02:10",0.0,27.1,87.2,1004.5,315.9,1.3,2.2,333.2,0.00,24.8,27.4,"02:00:24",1
"23/08/21","02:20",0.0,27.0,87.2,1004.3,321.0,1.1,2.0,337.7,0.00,24.7,27.2,"02:16:16",1
"23/08/21","02:30",0.0,27.0,87.2,1004.8,299.1,0.8,1.3,333.5,0.00,24.7,27.4,"02:22:56",1
"23/08/21","02:40",0.0,26.9,87.3,1004.3,305.7,0.8,2.6,319.4,0.00,24.6,27.2,"02:30:40",1
"23/08/21","02:50",0.0,26.7,87.5,1004.8,301.5,0.6,1.1,330.4,0.00,24.5,27.2,"02:48:16",1
"23/08/21","03:00",0.0,26.8,87.8,1004.5,308.3,0.8,1.7,332.1,0.00,24.6,27.1,"02:54:56",1
"23/08/21","03:10",0.0,26.9,88.0,1004.3,327.4,0.8,1.2,333.8,0.00,24.8,27.5,"03:02:32",1
"23/08/21","03:20",0.0,26.8,88.2,1004.3,331.2,0.8,1.1,319.4,0.00,24.7,27.1,"03:10:56",1
"23/08/21","03:30",0.0,26.9,88.5,1004.1,325.9,0.8,1.1,329.2,0.00,24.9,27.2,"03:20:56",1
"23/08/21","03:40",0.0,26.8,88.8,1004.5,285.7,0.6,1.0,254.1,0.00,24.8,27.2,"03:38:56",1
"23/08/21","03:50",0.0,26.8,88.9,1004.5,291.8,0.8,1.4,262.8,0.00,24.9,27.2,"03:41:52",1
"23/08/21","04:00",0.0,26.8,89.0,1004.3,294.8,0.8,1.8,304.0,0.00,24.9,27.2,"03:53:20",1
"23/08/21","04:10",0.0,26.9,89.0,1004.3,317.2,1.3,2.4,292.1,0.00,25.0,27.0,"04:02:56",1
"23/08/21","04:20",0.0,27.0,88.9,1004.5,303.8,0.7,1.8,335.1,0.00,25.1,27.1,"04:13:04",1
"23/08/21","04:30",0.0,27.0,88.9,1004.3,314.1,1.0,1.7,324.7,0.00,25.1,27.2,"04:24:24",1
"23/08/21","04:40",0.0,27.0,88.9,1004.1,319.5,1.1,1.7,330.2,0.00,25.1,27.1,"04:39:04",1
"23/08/21","04:50",0.0,27.0,88.9,1004.3,303.7,1.0,2.2,327.6,0.00,25.1,27.2,"04:41:12",1
"23/08/21","05:00",0.0,27.0,88.9,1004.5,268.5,0.7,1.2,242.1,0.00,25.1,27.2,"04:55:12",1
"23/08/21","05:10",0.0,27.0,88.9,1004.5,306.6,1.1,1.9,325.8,0.00,25.1,27.2,"05:08:48",1
"23/08/21","05:20",0.0,27.0,88.9,1004.3,311.9,1.1,2.4,318.1,0.00,25.1,27.0,"05:17:04",1
"23/08/21","05:30",0.0,26.9,89.0,1004.5,307.7,1.1,2.0,331.3,0.00,25.0,27.0,"05:26:00",1
"23/08/21","05:40",0.0,26.8,89.1,1004.5,321.9,0.8,1.4,322.7,0.00,24.9,26.9,"05:31:04",1
"23/08/21","05:50",0.0,26.7,89.3,1004.3,290.5,0.7,1.2,299.2,0.00,24.8,27.0,"05:47:04",1
"23/08/21","06:00",0.0,26.8,89.5,1004.5,274.7,0.7,1.6,259.5,0.00,25.0,27.0,"05:55:12",1
"23/08/21","06:10",0.0,26.9,89.6,1004.5,271.2,0.6,0.9,316.2,0.01,25.1,27.0,"06:01:36",1
"23/08/21","06:20",0.0,27.1,89.6,1004.5,287.0,0.6,1.2,296.7,0.02,25.3,27.0,"06:10:40",1
"23/08/21","06:30",0.0,27.4,89.5,1004.5,306.4,0.5,1.4,344.0,0.03,25.6,27.1,"06:26:32",1
"23/08/21","06:40",0.0,27.9,89.3,1004.8,335.7,0.2,1.0,350.0,0.04,26.0,26.9,"06:30:40",1
"23/08/21","06:50",0.0,28.6,88.8,1004.5,354.6,0.2,0.9,338.4,0.06,26.6,26.8,"06:44:32",1
"23/08/21","07:00",0.0,29.0,87.8,1004.5,359.4,0.2,0.8,356.5,0.08,26.8,26.9,"06:56:16",1
"23/08/21","07:10",0.0,29.2,86.6,1004.5,282.1,0.2,0.8,340.7,0.08,26.8,26.7,"07:00:08",1
"23/08/21","07:20",0.0,29.5,85.1,1004.3,285.7,0.2,0.8,226.8,0.10,26.8,27.1,"07:11:12",1
"23/08/21","07:30",0.0,29.8,82.9,1004.8,209.2,0.5,1.3,230.3,0.14,26.6,26.8,"07:29:04",1
"23/08/21","07:40",0.0,30.4,80.6,1005.0,193.5,0.5,1.1,220.9,0.16,26.7,27.0,"07:37:28",1
"23/08/21","07:50",0.0,31.1,77.2,1006.0,125.1,0.5,1.7,64.8,0.18,26.7,26.9,"07:48:24",1
"23/08/21","08:00",0.0,31.7,72.7,1006.2,20.8,0.7,1.8,341.9,0.20,26.2,27.1,"07:58:48",1
"23/08/21","08:10",0.0,32.2,70.5,1006.2,133.6,0.6,1.6,11.2,0.23,26.2,27.1,"08:01:44",1
"23/08/21","08:20",0.0,32.5,68.2,1006.4,17.7,0.6,1.4,40.1,0.25,25.9,27.1,"08:17:20",1
"23/08/21","08:30",0.0,32.8,65.8,1006.7,67.5,0.7,1.9,358.8,0.28,25.6,26.9,"08:24:40",1
"23/08/21","08:40",0.0,33.2,64.6,1006.9,43.1,0.6,1.6,6.1,0.30,25.7,26.9,"08:39:20",1
"23/08/21","08:50",0.0,32.9,65.3,1006.9,12.4,1.1,2.4,3.1,0.32,25.6,27.2,"08:43:44",1
"23/08/21","09:00",0.0,33.1,64.2,1006.7,26.3,1.0,2.1,356.1,0.33,25.5,27.3,"08:50:08",1
"23/08/21","09:10",0.0,32.9,65.1,1006.9,329.5,0.5,1.7,349.0,0.33,25.5,27.2,"09:04:40",1
"23/08/21","09:20",0.0,33.1,65.0,1006.9,299.4,0.5,1.9,21.8,0.34,25.7,27.3,"09:10:02",1
"23/08/21","09:30",0.0,33.5,63.7,1006.9,28.4,0.8,2.2,9.8,0.36,25.7,27.0,"09:23:28",1
"23/08/21","09:40",0.0,34.3,64.2,1006.9,59.3,0.6,1.4,37.0,0.40,26.6,27.3,"09:33:52",1
"23/08/21","09:50",0.0,34.6,62.7,1007.1,289.5,0.5,1.7,351.5,0.42,26.5,27.3,"09:42:32",1
"23/08/21","10:00",0.0,34.8,60.6,1007.4,75.1,0.6,2.1,4.4,0.44,26.1,27.4,"09:59:52",1
"23/08/21","10:10",0.0,34.7,60.4,1007.6,14.4,1.0,2.4,45.8,0.44,25.9,27.4,"10:03:04",1
"23/08/21","10:20",0.0,35.1,59.1,1007.1,41.2,0.6,1.9,17.2,0.46,25.9,27.5,"10:18:32",1
"23/08/21","10:30",0.0,35.1,58.2,1007.1,81.1,0.7,1.6,346.5,0.48,25.7,27.6,"10:20:40",1
"23/08/21","10:40",0.0,35.3,59.7,1006.9,192.5,0.7,1.9,137.6,0.49,26.3,27.7,"10:38:00",1
"23/08/21","10:50",0.0,35.0,58.0,1006.7,28.2,0.8,2.4,14.0,0.21,25.5,27.7,"10:43:44",1
"23/08/21","11:00",0.0,34.0,60.6,1006.2,345.1,0.7,1.7,347.2,0.15,25.3,27.6,"10:52:40",1
"23/08/21","11:10",0.0,33.7,60.5,1006.0,359.0,0.6,1.6,16.3,0.19,25.0,27.8,"11:06:24",1
"23/08/21","11:20",0.0,34.6,58.4,1005.7,354.9,0.7,1.6,357.6,0.42,25.3,27.8,"11:14:16",1
"23/08/21","11:30",0.0,34.7,58.7,1005.2,341.9,0.6,1.4,356.7,0.32,25.5,27.7,"11:28:32",1
"23/08/21","11:40",0.0,35.9,58.1,1005.5,355.5,0.7,2.1,357.4,0.54,26.4,27.7,"11:33:36",1
"23/08/21","11:50",0.0,35.9,56.3,1006.0,23.4,1.1,2.4,97.8,0.53,25.9,27.9,"11:49:44",1
"23/08/21","12:00",0.0,36.4,55.1,1006.0,116.0,1.1,3.1,129.8,0.54,26.0,28.0,"11:55:28",1
"23/08/21","12:10",0.0,35.5,55.7,1005.5,39.3,0.8,2.1,354.4,0.18,25.3,28.2,"12:09:52",1
"23/08/21","12:20",0.0,35.9,55.3,1006.0,64.9,1.3,2.7,89.1,0.44,25.6,28.1,"12:17:36",1
"23/08/21","12:30",0.0,35.6,55.8,1005.5,174.6,1.3,3.2,198.0,0.36,25.4,28.2,"12:24:00",1
"23/08/21","12:40",0.0,34.9,59.3,1004.5,164.6,0.7,1.9,156.3,0.14,25.8,28.3,"12:39:52",1
"23/08/21","12:50",0.0,35.4,57.2,1005.0,133.4,1.1,2.4,167.9,0.41,25.7,28.3,"12:42:56",1
"23/08/21","13:00",0.0,35.6,59.1,1004.8,142.3,0.8,2.1,173.6,0.22,26.4,28.2,"12:59:28",1
"23/08/21","13:10",0.0,36.5,54.4,1005.2,174.2,1.1,1.9,200.7,0.51,25.8,28.4,"13:07:04",1
"23/08/21","13:20",0.0,36.7,54.5,1005.0,173.5,1.3,2.6,134.9,0.42,26.1,28.6,"13:19:12",1
"23/08/21","13:30",0.0,36.6,52.0,1004.8,103.3,0.8,2.9,100.4,0.32,25.2,28.5,"13:24:08",1
"23/08/21","13:40",0.0,36.2,54.2,1004.8,84.7,0.7,1.8,125.2,0.17,25.5,28.7,"13:36:40",1
"23/08/21","13:50",0.0,35.4,54.5,1003.8,112.1,0.7,2.2,117.4,0.08,24.9,28.6,"13:40:32",1
"23/08/21","14:00",0.0,34.4,58.9,1003.6,150.4,0.8,2.6,131.3,0.05,25.2,28.7,"13:50:48",1
"23/08/21","14:10",0.0,35.9,57.0,1003.8,110.7,0.8,2.7,124.0,0.37,26.1,28.8,"14:03:12",1
"23/08/21","14:20",0.0,37.3,53.7,1004.1,93.1,0.8,2.4,132.0,0.40,26.4,28.7,"14:18:48",1
"23/08/21","14:30",0.0,37.3,52.8,1004.1,99.2,1.2,3.3,142.2,0.40,26.1,28.7,"14:20:24",1
"23/08/21","14:40",0.0,36.6,53.1,1004.1,99.9,1.0,1.9,152.8,0.26,25.5,28.8,"14:34:24",1
"23/08/21","14:50",0.0,37.4,52.2,1004.1,35.9,1.0,3.1,1.3,0.36,26.0,28.7,"14:44:56",1
"23/08/21","15:00",0.0,37.2,55.1,1003.8,141.6,1.1,2.4,181.5,0.35,26.7,28.8,"14:56:24",1
"23/08/21","15:10",0.0,37.2,54.6,1004.3,125.2,1.0,2.6,115.9,0.32,26.6,28.9,"15:00:02",1
"23/08/21","15:20",0.0,36.5,54.1,1004.1,80.7,1.1,3.1,81.0,0.15,25.8,28.8,"15:19:44",1
"23/08/21","15:30",0.0,34.8,58.1,1003.6,139.6,1.2,3.2,99.0,0.05,25.4,29.1,"15:29:28",1
"23/08/21","15:40",0.0,34.7,61.2,1003.1,124.9,1.2,2.7,85.1,0.09,26.2,29.0,"15:36:56",1
"23/08/21","15:50",0.0,35.1,59.4,1002.9,126.1,1.6,4.0,77.8,0.19,26.0,28.7,"15:46:24",1
"23/08/21","16:00",0.0,35.5,58.2,1003.1,124.8,1.3,3.2,95.9,0.21,26.1,29.0,"15:56:00",1
"23/08/21","16:10",0.0,35.6,57.6,1003.4,145.4,1.3,3.1,153.9,0.17,26.0,29.1,"16:07:52",1
"23/08/21","16:20",0.0,34.9,58.5,1002.9,148.0,1.2,2.1,97.4,0.09,25.6,29.0,"16:10:48",1
"23/08/21","16:30",0.0,34.5,59.5,1002.9,135.1,1.2,2.4,198.6,0.07,25.5,29.0,"16:25:04",1
"23/08/21","16:40",0.0,34.6,59.7,1002.6,125.9,1.1,2.5,119.1,0.07,25.7,29.1,"16:39:20",1
"23/08/21","16:50",0.0,34.3,60.7,1002.6,131.4,1.2,2.7,129.9,0.04,25.6,29.1,"16:44:32",1
"23/08/21","17:00",0.0,33.8,61.0,1001.9,131.7,1.2,2.8,151.9,0.01,25.3,29.1,"16:56:32",1
"23/08/21","17:10",0.0,33.5,61.1,1001.9,131.8,1.2,2.8,130.7,0.00,25.0,28.9,"17:08:32",1
"23/08/21","17:20",0.0,33.4,60.9,1002.2,132.5,1.2,2.9,140.4,0.00,24.9,29.1,"17:10:56",1
"23/08/21","17:30",0.0,33.4,60.3,1002.2,119.2,0.8,2.4,114.4,0.00,24.7,28.8,"17:20:02",1
"23/08/21","17:40",0.0,33.3,60.6,1002.4,143.7,1.3,2.7,194.1,0.00,24.7,29.1,"17:30:02",1
"23/08/21","17:50",0.0,33.2,61.2,1001.9,175.2,2.0,4.2,198.2,0.00,24.8,29.2,"17:45:36",1
"23/08/21","18:00",0.0,32.6,62.7,1002.4,186.3,1.5,2.9,155.5,0.00,24.6,28.8,"17:50:48",1
"23/08/21","18:10",0.0,32.4,63.1,1002.6,160.3,1.0,2.0,187.1,0.00,24.5,28.9,"18:01:28",1
"23/08/21","18:20",0.0,32.3,63.1,1002.6,150.3,1.0,1.9,131.3,0.00,24.4,28.8,"18:16:48",1
"23/08/21","18:30",0.0,32.2,63.6,1002.9,160.0,1.0,4.1,220.0,0.00,24.5,28.7,"18:20:02",1
"23/08/21","18:40",0.0,32.1,65.4,1002.6,197.3,1.1,3.3,219.5,0.00,24.8,28.7,"18:30:08",1
"23/08/21","18:50",0.0,31.8,66.3,1002.6,161.6,0.8,1.8,176.4,0.00,24.8,28.7,"18:43:12",1
"23/08/21","19:00",0.0,31.8,67.2,1003.1,177.9,1.1,1.9,208.4,0.00,25.0,28.5,"18:59:36",1
"23/08/21","19:10",0.0,31.6,68.1,1002.6,188.8,1.1,2.1,223.2,0.00,25.0,28.5,"19:00:32",1
"23/08/21","19:20",0.0,31.3,69.0,1002.6,157.8,1.0,1.9,123.1,0.00,25.0,28.5,"19:10:56",1
"23/08/21","19:30",0.0,31.2,69.5,1002.9,183.7,1.0,1.8,225.6,0.00,25.0,28.4,"19:24:00",1
"23/08/21","19:40",0.0,31.1,70.3,1002.6,182.8,1.1,2.5,140.4,0.00,25.1,28.5,"19:32:40",1
"23/08/21","19:50",0.0,30.3,68.2,1002.6,156.5,1.1,3.7,187.1,0.00,23.8,28.5,"19:48:16",1
"23/08/21","20:00",0.0,30.9,62.2,1002.4,144.7,1.5,4.0,133.7,0.00,22.9,28.3,"19:51:20",1
"23/08/21","20:10",0.0,31.4,63.4,1002.4,172.9,1.1,2.8,127.8,0.00,23.7,28.3,"20:05:20",1
"23/08/21","20:20",0.0,30.5,68.5,1002.4,307.9,0.5,1.2,345.6,0.00,24.1,28.3,"20:15:20",1
"23/08/21","20:30",0.0,29.6,71.4,1002.6,6.2,0.2,0.9,347.1,0.00,23.9,28.2,"20:29:44",1
"23/08/21","20:40",0.0,29.0,73.8,1003.4,342.5,1.0,1.7,341.1,0.00,23.9,28.3,"20:31:28",1
"23/08/21","20:50",0.0,28.4,75.8,1003.1,274.4,0.6,1.6,328.7,0.00,23.8,28.1,"20:47:44",1
"23/08/21","21:00",0.0,28.2,76.7,1003.1,288.3,0.7,1.6,336.4,0.00,23.8,28.2,"20:55:52",1
"23/08/21","21:10",0.0,28.1,77.5,1003.4,330.4,0.7,1.3,332.4,0.00,23.8,28.0,"21:07:04",1
"23/08/21","21:20",0.0,27.9,79.0,1003.6,331.0,0.8,2.2,343.7,0.00,24.0,28.2,"21:15:52",1
"23/08/21","21:30",0.0,28.4,76.2,1003.6,223.9,1.2,2.7,242.8,0.00,23.8,28.2,"21:28:24",1
"23/08/21","21:40",0.0,28.3,75.0,1003.4,194.7,0.6,1.6,191.2,0.00,23.5,28.0,"21:39:28",1
"23/08/21","21:50",0.0,28.2,74.0,1004.1,10.0,0.6,1.6,336.2,0.00,23.2,28.0,"21:48:40",1
"23/08/21","22:00",0.0,29.1,70.2,1003.8,148.2,1.0,2.0,158.4,0.00,23.2,28.0,"21:55:12",1
"23/08/21","22:10",0.0,29.4,68.3,1003.8,147.2,1.0,2.9,153.9,0.00,23.0,27.8,"22:02:00",1
"23/08/21","22:20",0.0,29.4,68.0,1003.8,128.7,1.0,2.1,133.2,0.00,22.9,27.9,"22:11:04",1
"23/08/21","22:30",0.0,29.4,67.9,1003.8,139.9,0.8,2.5,105.8,0.00,22.9,27.9,"22:20:48",1
"23/08/21","22:40",0.0,29.3,68.4,1003.8,127.5,0.8,2.6,139.1,0.00,22.9,27.7,"22:37:12",1
"23/08/21","22:50",0.0,29.4,68.5,1003.6,131.0,1.1,2.5,114.7,0.00,23.0,27.7,"22:44:48",1
"23/08/21","23:00",0.0,29.4,68.7,1003.8,162.5,1.5,2.8,141.2,0.00,23.1,27.8,"22:56:08",1
"23/08/21","23:10",0.0,29.4,68.7,1003.8,118.3,1.1,2.5,80.1,0.00,23.1,27.8,"23:05:52",1
"23/08/21","23:20",0.0,29.0,69.4,1003.8,28.2,0.3,1.3,111.2,0.00,22.9,27.7,"23:12:00",1
"23/08/21","23:30",0.0,28.6,71.0,1003.6,343.2,0.5,1.1,6.4,0.00,22.9,27.7,"23:22:32",1
"23/08/21","23:40",0.0,28.1,73.0,1003.8,262.0,0.2,1.1,335.6,0.00,22.8,27.5,"23:33:44",1
"23/08/21","23:50",0.0,28.0,75.1,1003.8,355.5,0.5,1.3,353.8,0.00,23.2,27.6,"23:49:36",1
"23/08/21","24:00",0.0,27.9,75.8,1003.8,330.2,0.6,1.1,345.1,0.00,23.3,27.4,"23:52:08",1
